Starlink 5960

operational
NORAD ID: 56920 Int'l Des: 2023-083 Owner: SPXS Country: US Constellation: starlink
LEOCIRCULAR

Starlink 5960について

説明を読み込み中...

リアルタイム位置

3D地球を読み込み中...

次回通過

高度履歴

Altitude vs Time

uPlot chart will show altitude changes over time

軌道要素

1 56920U 23083AW 26063.11677621 .00000060 00000-0 19493-4 0 9992
2 56920 43.0027 98.9198 0001264 273.8902 86.1796 15.02535536150983
Epoch: Mar 4, 2026 • Age: 19 hours

現在のステータス

高度 561.6 km
速度 7.58 km/s
衛星直下点 -15.25°S, 3.97°W
打ち上げ日 Jun 12, 2023
運用期間 2.7 years
タイプ internet

技術仕様

分類 Payload
質量 305.00 kg
乾燥質量 290.00 kg
総質量 305.00 kg
長さ 0.20 m
直径 2.80 m
スパン 9.00 m
形状 Box + pan
製造者 SPXS
バスタイプ Starlink
フェーズステータス In Orbit
所有者/国 SPXS/US

大規模コンステレーション

Loading constellations...